Retour au catalogue

HETE 2

LostScienceVLEO
NORAD 26561·PAYLOAD·🇺🇸 United States

Lancé Oct 9, 2000 depuis Ronald Reagan Space and Missile Test Range

Loading…

Prochains Passages (prochaines 24 heures)

TLE

PériméSource: Space-Track

Époque: Jan 5, 2024, 12:11 UTC

1 26561U 00061A   24005.50772891  .00009088  00000-0  38599-3 0  9999
2 26561   1.9416 347.7946 0020616  67.5655 292.6569 15.17702077276946

Suivez HETE 2 en temps réel avec AllMySat

Download on the App Store